Miscellaneous Local Product
Issued by NWS North Platte, NE

Home | Current Version | Previous Version | Text Only | Print | Product List | Glossary On
Versions: 1 2 3 4 5 6 7 8 9 10 11 12 13 14 15 16 17 18 19 20 21 22 23 24 25 26 27 28 29 30 31 32 33 34 35 36 37 38 39 40 41 42 43 44 45 46 47 48 49 50
000
AXUS43 KLBF 020610
MISLBF


WESTERN AND NORTH CENTRAL NEBRASKA HOURLY WEATHER ROUNDUP
NATIONAL WEATHER SERVICE NORTH PLATTE NE
100 AM CDT SUN AUG 02 2015

***STATIONS NOT REPORTING VARIABLES SUCH AS SKY/WEATHER OR
PRESSURE ARE PROVIDED BY THE NEBRASKA DEPARTMENT OF
ROADS...RAWS...AND APRS NETWORKS...AND ARE NOT UNDER
NATIONAL WEATHER SERVICE QUALITY CONTROL***

...OBSERVATIONS IN AND NEAR THE EASTERN PANHANDLE OF NEBRASKA...

CITY           SKY/WX    TMP DP  RH WIND       PRES   REMARKS
PINE RIDGE     CLEAR     70  58  65 S5        29.97F
CHADRON        CLEAR     69  55  60 VRB5      29.96F
ALLIANCE       CLEAR     64  56  75 CALM      30.01F
SIDNEY         MOCLDY    69  55  60 SW12      30.07R
BIG SPRINGS      N/A     71  58  64 S5          N/A
$$

...OBSERVATIONS IN NORTH CENTRAL NEBRASKA...

CITY           SKY/WX    TMP DP  RH WIND       PRES   REMARKS
THEDFORD       PTCLDY    63  60  90 CALM      29.98S
AINSWORTH      CLEAR     69  60  75 SW8       29.94S
O`NEILL        CLEAR     69  62  78 S7        29.89F
ORD            PTCLDY    64  63  96 W3        29.92F
BROKEN BOW     MOCLDY    66  62  87 N5        29.95S
SPRINGVIEW       N/A     62  60  92 CALM        N/A
CHAMBERS         N/A     68  62  79 S3          N/A
EWING            N/A     67  62  85 CALM        N/A
$$

...OBSERVATIONS IN SOUTHWEST NEBRASKA AND FAR NORTHEAST COLORADO...

CITY           SKY/WX    TMP DP  RH WIND       PRES   REMARKS
WRAY           FAIR      74  56  54 S8        30.03F
IMPERIAL       MOCLDY    73  55  53 SW8       29.98S
OGALLALA       CLEAR     67  58  71 W6        29.99R
NORTH PLATTE   PTCLDY    64  61  90 CALM      29.97S
MCCOOK         CLOUDY    75  58  55 S8        29.95F
LEXINGTON      MOCLDY    70  64  83 CALM      29.95S
PAXTON           N/A     68  58  69 CALM        N/A
BRADY            N/A     68  63  84 CALM        N/A
CALLAWAY         N/A     65  62  90 CALM        N/A
$$

...NORTH PLATTE AREA...

CITY           SKY/WX    TMP DP  RH WIND       PRES   REMARKS
AIRPORT        PTCLDY    64  61  90 CALM      29.97S
DOWNTOWN         N/A     69  58  68 CALM        N/A
SANDRIDGE        N/A     68  60  75 CALM        N/A
HILLCREST        N/A     74  54  48 CALM        N/A
$$

...SOME WEATHER OBSERVATIONS FROM AROUND THE REGION...

CITY           SKY/WX    TMP DP  RH WIND       PRES   REMARKS
DENVER         MOCLDY    74  46  36 S13       30.10R
LARAMIE        PTCLDY    62  43  49 S7        30.24R
CHEYENNE       PTCLDY    65  53  65 S8        30.17S
SCOTTSBLUFF    PTCLDY    71  55  56 SE8       30.03S
RAPID CITY     CLEAR     70  61  73 SW7       29.92F
PIERRE           N/A     75  61  61 SW10      29.78F
WINNER         FAIR      74  59  59 SW12      29.85F
SIOUX FALLS    CLEAR     73  63  70 SW7       29.82F
OMAHA          CLEAR     76  72  87 S8        29.90F
GRAND ISLAND   PTCLDY    73  68  84 S8        29.92F
KANSAS CITY    PTCLDY    69  64  84 S7        29.97F
WICHITA        MOCLDY    76  69  79 S7        29.98S
HAYS           MOCLDY    73  63  68 S7        29.96F
LIBERAL        CLOUDY    72  64  78 S8        30.01F
GOODLAND       CLOUDY    68  61  78 S6        30.04S
$$



USA.gov is the U.S. government's official web portal to all federal, state and local government web resources and services.